DW0088 Weather Reports


Display with metric or nautical units.
time (UTC)temp
F
wind
direction
speed
MPH
gust
MPH
rain 1hr
in
rain 24hr
in
rain mn
in
humidity
%
barometer
mb
20260509230954 51 6 4.0 6.0 0.00 0.00 0.00 85 1015.3
20260509225953 51 2 3.0 5.0 0.00 0.00 0.00 84 1015.3
20260509223953 52 335 4.0 5.0 0.00 0.00 0.00 82 1015.4
20260509222953 53 18 2.0 4.0 0.00 0.00 0.00 82 1015.4
20260509220953 53 3 4.0 6.0 0.00 0.00 0.00 80 1015.2
20260509215957 54 4 4.0 6.0 0.00 0.00 0.00 79 1015.2
20260509213953 55 11 3.0 5.0 0.00 0.00 0.00 76 1015.3
20260509211953 56 20 3.0 7.0 0.00 0.00 0.00 73 1015.3
20260509210953 57 12 4.0 7.0 0.00 0.00 0.00 73 1015.4
20260509205954 57 8 4.0 7.0 0.00 0.00 0.00 72 1015.5
20260509204953 57 17 4.0 6.0 0.00 0.00 0.00 71 1015.5
20260509203953 58 19 3.0 6.0 0.00 0.00 0.00 70 1015.5
20260509202953 58 19 3.0 6.0 0.00 0.00 0.00 68 1015.4
20260509201953 59 23 3.0 6.0 0.00 0.00 0.00 67 1015.4
20260509200954 59 16 4.0 8.0 0.00 0.00 0.00 66 1015.3
20260509195953 59 16 5.0 8.0 0.00 0.00 0.00 66 1015.5
20260509194953 59 12 4.0 7.0 0.00 0.00 0.00 67 1015.5
20260509192953 60 9 3.0 5.0 0.00 0.00 0.00 66 1015.1
20260509191953 62 12 3.0 5.0 0.00 0.00 0.00 62 1015.1
20260509185954 63 15 3.0 4.0 0.00 0.00 0.00 60 1015.0
20260509184954 64 10 3.0 4.0 0.00 0.00 0.00 61 1015.0
20260509183953 64 17 3.0 6.0 0.00 0.00 0.00 58 1015.0
20260509182953 65 22 3.0 6.0 0.00 0.00 0.00 57 1014.9
20260509181953 66 19 3.0 5.0 0.00 0.00 0.00 57 1014.9
20260509180954 66 18 4.0 7.0 0.00 0.00 0.00 55 1014.7
20260509175954 66 2 5.0 6.0 0.00 0.00 0.00 55 1014.6
20260509174954 67 24 5.0 8.0 0.00 0.00 0.00 54 1014.6
20260509173954 67 45 4.0 8.0 0.00 0.00 0.00 54 1014.8
20260509170954 67 27 2.0 4.0 0.00 0.00 0.00 56 1014.6
20260509165954 67 47 3.0 7.0 0.00 0.00 0.00 54 1014.8
20260509164954 67 43 2.0 4.0 0.00 0.00 0.00 54 1014.8
20260509163953 67 53 3.0 7.0 0.00 0.00 0.00 54 1014.9
20260509162954 67 61 4.0 10.0 0.00 0.00 0.00 54 1014.7
20260509161954 67 316 5.0 9.0 0.00 0.00 0.00 53 1014.7
20260509160954 68 283 5.0 8.0 0.00 0.00 0.00 52 1014.9
20260509154954 68 330 7.0 10.0 0.00 0.00 0.00 54 1015.0
20260509152954 69 326 2.0 4.0 0.00 0.00 0.00 51 1015.0
20260509151954 69 329 4.0 7.0 0.00 0.00 0.00 53 1015.0
20260509150954 69 272 3.0 6.0 0.00 0.00 0.00 52 1015.1
20260509145954 68 295 4.0 7.0 0.00 0.00 0.00 51 1015.2
20260509144954 68 314 5.0 7.0 0.00 0.00 0.00 53 1015.2
20260509143954 67 311 4.0 6.0 0.00 0.00 0.00 54 1015.4
20260509142955 67 3 5.0 9.0 0.00 0.00 0.00 53 1015.5
20260509141954 68 293 6.0 9.0 0.00 0.00 0.00 53 1015.5
20260509140954 67 325 5.0 8.0 0.00 0.00 0.00 56 1015.5
20260509135954 68 258 4.0 7.0 0.00 0.00 0.00 53 1015.7
20260509134954 69 357 4.0 7.0 0.00 0.00 0.00 53 1015.7
20260509132955 68 92 5.0 9.0 0.00 0.00 0.00 56 1016.2
20260509131955 67 41 6.0 10.0 0.00 0.00 0.00 56 1016.2
20260509130954 66 42 5.0 13.0 0.00 0.00 0.00 56 1016.2
20260509124955 65 51 3.0 6.0 0.00 0.00 0.00 56 1016.5
20260509123955 66 65 6.0 9.0 0.00 0.00 0.00 55 1016.6
20260509122954 67 19 5.0 10.0 0.00 0.00 0.00 54 1016.7
20260509121955 67 14 4.0 10.0 0.00 0.00 0.00 55 1016.7
20260509120955 66 86 3.0 10.0 0.00 0.00 0.00 56 1016.9
20260509115954 67 32 5.0 10.0 0.00 0.00 0.00 56 1017.1
20260509114956 66 297 2.0 6.0 0.00 0.00 0.00 59 1017.1
20260509113955 65 298 4.0 7.0 0.00 0.00 0.00 57 1017.1
20260509112955 65 62 2.0 8.0 0.00 0.00 0.00 57 1017.3
20260509111956 66 56 5.0 10.0 0.00 0.00 0.00 58 1017.3
20260509110954 66 342 2.0 9.0 0.00 0.00 0.00 61 1017.4
20260509104954 65 5 5.0 10.0 0.00 0.00 0.00 57 1017.6
20260509102955 64 55 1.0 5.0 0.00 0.00 0.00 61 1017.7
20260509101955 65 42 6.0 11.0 0.00 0.00 0.00 60 1017.7
20260509095955 64 75 3.0 9.0 0.00 0.00 0.00 62 1018.0
20260509094955 64 57 2.0 8.0 0.00 0.00 0.00 64 1018.0
20260509093956 63 66 4.0 10.0 0.00 0.00 0.00 64 1018.1
20260509090955 62 69 4.0 8.0 0.00 0.00 0.00 71 1018.1
20260509085955 62 76 5.0 9.0 0.00 0.00 0.00 72 1018.1
20260509084955 61 55 5.0 9.0 0.00 0.00 0.00 75 1018.1
20260509083955 60 47 5.0 9.0 0.00 0.00 0.00 76 1018.1
20260509082955 60 43 6.0 9.0 0.00 0.00 0.00 77 1018.1
20260509081955 59 51 6.0 9.0 0.00 0.00 0.00 79 1018.1
20260509080956 58 48 7.0 10.0 0.00 0.00 0.00 80 1018.2
20260509075955 58 51 7.0 11.0 0.00 0.00 0.00 80 1018.1
20260509074955 57 49 7.0 10.0 0.00 0.00 0.00 81 1018.1
20260509073955 57 59 6.0 9.0 0.00 0.00 0.00 83 1018.1
20260509072956 56 71 6.0 9.0 0.00 0.00 0.00 84 1018.2
20260509070957 55 48 4.0 7.0 0.00 0.00 0.00 88 1018.3
20260509062955 51 53 4.0 7.0 0.00 0.00 0.00 94 1018.2
20260509061956 51 54 4.0 7.0 0.00 0.00 0.00 94 1018.2
20260509060955 50 51 4.0 7.0 0.00 0.00 0.00 95 1018.2
20260509054956 48 56 2.0 4.0 0.00 0.00 0.00 97 1018.1
20260509053955 48 70 2.0 3.0 0.00 0.00 0.00 97 1018.0
20260509052956 47 64 1.0 2.0 0.00 0.00 0.00 98 1017.9
20260509050956 45 63 0.0 1.0 0.00 0.00 0.00 98 1017.9
20260509045956 44 0 0.0 0.0 0.00 0.00 0.00 98 1017.8
20260509044955 44 0 0.0 0.0 0.00 0.00 0.00 97 1017.8
20260509043956 43 0 0.0 0.0 0.00 0.00 0.00 97 1017.7
20260509041956 43 0 0.0 0.0 0.00 0.00 0.00 97 1017.6
20260509040955 44 0 0.0 0.0 0.00 0.00 0.00 97 1017.6
20260509035956 44 0 0.0 0.0 0.00 0.00 0.00 97 1017.6
20260509034956 44 0 0.0 0.0 0.00 0.00 0.00 97 1017.6
20260509033955 43 0 0.0 0.0 0.00 0.00 0.00 97 1017.6
20260509032956 43 63 0.0 1.0 0.00 0.00 0.00 97 1017.6
20260509030956 43 65 1.0 3.0 0.00 0.00 0.00 96 1017.7
20260509025956 43 71 0.0 1.0 0.00 0.00 0.00 96 1017.9
20260509024956 43 71 0.0 1.0 0.00 0.00 0.00 96 1017.9
20260509022957 44 0 0.0 0.0 0.00 0.00 0.00 95 1017.9
20260509021956 44 0 0.0 0.0 0.00 0.00 0.00 95 1017.9
20260509020956 45 0 0.0 0.0 0.00 0.00 0.00 95 1017.9
20260509015956 45 0 0.0 0.0 0.00 0.00 0.00 95 1018.0
20260509014956 45 0 0.0 0.0 0.00 0.00 0.00 96 1018.0
20260509013958 45 0 0.0 0.0 0.00 0.00 0.00 95 1018.0
20260509012956 45 0 0.0 0.0 0.00 0.00 0.00 95 1018.1
20260509011956 45 70 0.0 1.0 0.00 0.00 0.00 94 1018.1
20260509010956 45 71 0.0 1.0 0.00 0.00 0.00 94 1018.1
20260509005957 45 71 1.0 2.0 0.00 0.00 0.00 93 1018.1
20260509003956 46 0 0.0 0.0 0.00 0.00 0.00 92 1018.1
20260509002956 46 0 0.0 0.0 0.00 0.00 0.00 92 1018.1
20260509001956 46 71 0.0 1.0 0.00 0.00 0.00 91 1018.1
20260508234957 47 70 1.0 4.0 0.00 0.00 0.00 90 1018.1
20260508233956 48 64 1.0 3.0 0.00 0.00 0.00 90 1018.1
20260508232957 48 51 1.0 3.0 0.00 0.00 0.00 90 1018.1
20260508231957 48 49 2.0 3.0 0.00 0.00 0.00 91 1018.1